Milan Linate, Italy

2:15 AM CET on December 15, 2018 (GMT +0100)
Linate

Weather History for LIML - October, 2018

Change the Weather History Date:

Friday, October 12, 2018

  Actual Average Record
Temperature  
Mean Temperature 66 °F -  
Max Temperature 74 °F 58 °F 82 °F (2011)
Min Temperature 59 °F 43 °F 39 °F (2016)
Cooling Degree Days 2    
Growing Degree Days 16 (Base 50)    
Moisture  
Dew Point 59 °F    
Average Humidity 82    
Maximum Humidity 100    
Minimum Humidity 49    
Precipitation  
Precipitation 0.01 in 0.13 in - ()
Sea Level Pressure  
Sea Level Pressure 30.28 in    
Wind  
Wind Speed 3 mph ()    
Max Wind Speed 7 mph    
Max Gust Speed -    
Visibility 3.5 miles    
Events Rain    
Averages and records for this station are not official NWS values.
T = Trace of Precipitation, MM = Missing Value Source: Averaged Metar Reports

Daily Weather History Graph

Daily Weather History Graph

Search for Another Location

Airport or City:

Astronomy

Oct. 12, 2018 Rise Set
Actual Time 7:34 AM CEST 6:43 PM CEST
Civil Twilight 7:05 AM CEST 7:12 PM CEST
Nautical Twilight 6:30 AM CEST 7:47 PM CEST
Astronomical Twilight 5:56 AM CEST 8:21 PM CEST
Moon 10:59 AM CEST (10/12) 9:00 PM CEST (10/12)
Length of Visible Light 12h 07m
Length of Day
11h 08m
Waxing Crescent, 12% of the Moon is Illuminated
Oct 12
Waxing Crescent
Oct 16
First Quarter
Oct 24
Full
Oct 31
Last Quarter
Nov 7
New

Hourly Weather History & Observations

Time (CEST) Temp. Dew Point Humidity Pressure Visibility Wind Dir Wind Speed Gust Speed Precip Events Conditions
12:20 AM 60.8 °F 59.0 °F 94% 30.21 in 2.5 mi WSW 3.5 mph - N/A Rain Light Rain
12:50 AM 60.8 °F 59.0 °F 94% 30.21 in 1.2 mi Variable 2.3 mph - N/A   Mostly Cloudy
1:20 AM 60.8 °F 59.0 °F 94% 30.24 in 1.2 mi WSW 3.5 mph - N/A   Mostly Cloudy
1:50 AM 59.0 °F 59.0 °F 100% 30.24 in 1.2 mi SW 4.6 mph - N/A   Mostly Cloudy
2:00 AM 60 °F 59 °F 94% 30.25 in - WSW 4.6 mph - -  
5:00 AM 60 °F 59 °F 94% 30.25 in - SSW 2.3 mph - -  
6:50 AM 59.0 °F 59.0 °F 100% 30.24 in 1.2 mi West 3.5 mph - N/A   Mostly Cloudy
7:20 AM 59.0 °F 59.0 °F 100% 30.27 in 3.1 mi West 4.6 mph - N/A   Mostly Cloudy
7:50 AM 59.0 °F 59.0 °F 100% 30.27 in 1.9 mi WSW 3.5 mph - N/A   Mostly Cloudy
8:00 AM 60 °F 59 °F 94% 30.29 in 2 mi WSW 2.3 mph - -   Mist
8:20 AM 59.0 °F 59.0 °F 100% 30.27 in 2.5 mi West 4.6 mph - N/A   Mostly Cloudy
8:50 AM 60.8 °F 59.0 °F 94% 30.30 in 3.1 mi Variable 2.3 mph - N/A   Mostly Cloudy
9:20 AM 60.8 °F 59.0 °F 94% 30.30 in 3.7 mi WSW 3.5 mph - N/A   Scattered Clouds
9:50 AM 62.6 °F 60.8 °F 94% 30.30 in 5.0 mi WSW 4.6 mph - N/A   Scattered Clouds
10:20 AM 66.2 °F 60.8 °F 83% 30.30 in - Variable 2.3 mph - N/A   Clear
10:50 AM 66.2 °F 60.8 °F 83% 30.30 in - Variable 2.3 mph - N/A   Clear
11:20 AM 66.2 °F 60.8 °F 83% 30.30 in - WSW 4.6 mph - N/A   Clear
11:50 AM 68.0 °F 60.8 °F 78% 30.30 in - SSW 5.8 mph - N/A   Clear
12:20 PM 69.8 °F 60.8 °F 73% 30.30 in - SSW 5.8 mph - N/A   Clear
12:50 PM 69.8 °F 60.8 °F 73% 30.30 in - SW 5.8 mph - N/A   Clear
1:20 PM 69.8 °F 59.0 °F 68% 30.27 in - SW 6.9 mph - N/A   Clear
1:50 PM 71.6 °F 60.8 °F 69% 30.27 in - WSW 6.9 mph - N/A   Clear
2:00 PM 72 °F 60 °F 58% 30.29 in 6 mi WSW 5.8 mph - -  
2:20 PM 71.6 °F 60.8 °F 69% 30.27 in - SW 5.8 mph - N/A   Clear
2:50 PM 73.4 °F 59.0 °F 61% 30.27 in 6.2 mi WSW 5.8 mph - N/A   Partly Cloudy
3:20 PM 73.4 °F 59.0 °F 61% 30.27 in 6.2 mi West 4.6 mph - N/A   Partly Cloudy
3:50 PM 73.4 °F 57.2 °F 57% 30.27 in - WSW 3.5 mph - N/A   Clear
4:20 PM 75.2 °F 59.0 °F 57% 30.27 in - Variable 3.5 mph - N/A   Clear
4:50 PM 73.4 °F 57.2 °F 57% 30.27 in - SSW 4.6 mph - N/A   Clear
5:00 PM 74 °F 58 °F 49% 30.27 in 6 mi SSW 4.6 mph - -  
5:20 PM 73.4 °F 59.0 °F 61% 30.27 in - WSW 3.5 mph - N/A   Clear
5:50 PM 73.4 °F 59.0 °F 61% 30.27 in - SSW 4.6 mph - N/A   Clear
6:20 PM 71.6 °F 59.0 °F 64% 30.27 in - SSW 3.5 mph - N/A   Clear
7:20 PM 64.4 °F 59.0 °F 83% 30.27 in - SW 1.2 mph - N/A   Clear
7:50 PM 64.4 °F 59.0 °F 83% 30.27 in - SW 2.3 mph - N/A   Clear
8:00 PM 63 °F 60 °F 87% 30.30 in - Calm Calm - -  
8:20 PM 62.6 °F 60.8 °F 94% 30.27 in - WSW 1.2 mph - N/A   Clear
8:50 PM 60.8 °F 59.0 °F 94% 30.27 in - Variable 1.2 mph - N/A   Clear
9:20 PM 60.8 °F 59.0 °F 94% 30.30 in - Variable 1.2 mph - N/A   Clear
9:50 PM 60.8 °F 57.2 °F 88% 30.30 in - Variable 1.2 mph - N/A   Clear
10:20 PM 60.8 °F 59.0 °F 94% 30.30 in - West 3.5 mph - N/A   Clear
10:50 PM 60.8 °F 59.0 °F 94% 30.30 in - Variable 2.3 mph - N/A   Clear
11:00 PM 61 °F 59 °F 92% 30.31 in 6 mi 2.3 mph - -  
11:20 PM 60.8 °F 59.0 °F 94% 30.30 in - Variable 2.3 mph - N/A   Clear
11:50 PM 60.8 °F 59.0 °F 94% 30.30 in - Variable 2.3 mph - N/A   Clear